Tracking 19827 objects as of 22-Aug-2019
HD Live streaming from Space Station
objects crossing your sky now

COSMOS 1577

Track COSMOS 1577 now!
10-day predictions
COSMOS 1577 is classified as:


NORAD ID: 15077
Int'l Code: 1984-067A
Perigee: 960.0 km
Apogee: 1,014.6 km
Inclination: 83.0 °
Period: 104.7 minutes
Semi major axis: 7358 km
RCS: 2.4814 m2 (large)
Launch date: June 27, 1984
Source: Commonwealth of Independent States (former USSR) (CIS)
Launch site: PLESETSK MISSILE AND SPACE COMPLEX (PKMTR)
aabbcc
Your satellite tracking list
Your tracking list is empty




NASA's NSSDC Master Catalog

Two Line Element Set (TLE):
1 15077U 84067A   19233.55329191  .00000016  00000-0  47118-6 0  9992
2 15077  82.9539 249.9213 0037079 114.8459 356.5826 13.75425399511185
Source of the keplerian elements: AFSPC